[[{"header":{"parameterUnit":"m.s-1","parameterCategory":1,"la1":30.2991,"la2":30.254,"lo1":-89.0895,"lo2":-89.0444,"dy":0.0017,"dx":0.0017,"nx":28,"ny":28,"refTime":"2023-10-06T21:00:00:Z","depth":0,"parameterNumber":2,"parameterNumberName":"U-component_of_WINDS"},"data":[0,0,0,0,0,0,0,0,0,0,0,0,0,0,0,0,0,0,0,0,0,0,0,0,0,0,0,0,0,0,0,0,0,0,0,0,0,0,0,0,0,0,0,0,0,0,0,0,0,0,0,0,0,0,0,0,0,0,-1.8814,-1.8814,0,-1.8856,-1.8856,-1.8857,-1.8796,-1.8794,-1.8792,-1.879,-1.8834,-1.8837,-1.884,0,0,0,0,0,0,0,0,0,0,0,0,0,-1.8679,-1.8682,-1.8813,-1.8814,-1.8815,-1.8856,-1.8857,-1.8857,-1.8796,-1.8794,-1.8791,-1.8789,-1.8833,-1.8836,-1.884,0,0,0,0,0,0,0,0,0,0,0,0,0,-1.8731,-1.8683,-1.8813,-1.8789,-1.8788,-1.8856,-1.8857,-1.8857,-1.8797,-1.8794,-1.8791,-1.8788,-1.8831,-1.8836,-1.8841,-1.8935,0,0,-1.8855,-1.8857,0,0,0,0,0,0,0,0,-1.8728,-1.8736,-1.8792,-1.8791,-1.8789,-1.8817,-1.8825,-1.8883,-1.8798,-1.8793,-1.879,-1.8786,-1.8831,-1.8836,-1.8851,-1.8937,-1.8939,-1.8856,-1.8859,-1.8861,-1.8862,0,0,0,0,0,0,0,-1.8725,-1.8734,-1.883,-1.8793,-1.8791,-1.8776,-1.878,-1.8836,-1.883,-1.8794,-1.8789,-1.8795,-1.8829,-1.8846,-1.8851,-1.8939,-1.8856,-1.886,-1.8863,-1.8865,-1.9105,-1.9108,0,0,0,0,0,0,-1.8724,-1.8731,-1.8829,-1.8832,-1.875,-1.8781,-1.8785,-1.8812,-1.8829,-1.8829,-1.8798,-1.8792,-1.884,-1.8846,-1.8852,-1.8964,-1.8861,-1.8865,-1.8868,-1.9101,-1.9105,-1.9109,0,0,0,0,0,0,-1.8721,-1.8733,-1.8827,-1.878,-1.8791,-1.8787,-1.8817,-1.8814,-1.8831,-1.8832,-1.8831,-1.8816,-1.8837,-1.8846,-1.8915,-1.8965,-1.8867,-1.8872,-1.9097,-1.9102,-1.9107,-1.9189,0,0,0,0,0,0,-1.8718,-1.8733,-1.8769,-1.8782,-1.8794,-1.8889,-1.882,-1.8817,-1.8839,-1.8832,-1.8849,-1.8849,-1.8835,-1.8908,-1.8919,-1.897,-1.8875,-1.9092,-1.9099,-1.9106,-1.9182,-1.9196,-1.9209,0,0,0,0,0,-1.8713,-1.879,-1.8771,-1.8783,-1.8839,-1.8892,-1.8899,-1.8883,-1.8843,-1.888,-1.888,-1.8848,-1.8957,-1.8916,-1.8928,-1.8981,-1.9089,-1.9097,-1.9105,-1.9176,-1.9193,-1.9208,0,0,0,0,0,0,-1.8784,-1.8792,-1.877,-1.8854,-1.8873,-1.8882,-1.8927,-1.8902,-1.8933,-1.8925,-1.8902,-1.8906,-1.8981,-1.8987,-1.894,-1.9072,-1.9017,-1.9027,-1.9066,-1.9083,-1.9096,-1.9094,-1.8879,0,0,0,0,0,-1.8809,-1.8852,-1.8856,-1.8929,-1.894,-1.8932,-1.8955,-1.894,-1.8959,-1.8967,-1.8972,-1.8992,-1.903,-1.9056,-1.9092,-1.9181,-1.9184,-1.9223,-1.9237,-1.9248,-1.9258,-1.9306,-1.9324,-1.9135,-1.9135,-1.9135,0,0,-1.8862,-1.8871,-1.89,-1.8944,-1.8957,-1.9002,-1.8939,-1.899,-1.9023,-1.8974,-1.904,-1.9045,-1.9065,-1.9145,-1.918,-1.9152,-1.931,-1.9258,-1.9267,-1.9271,-1.9316,-1.9334,-1.935,-1.914,-1.9139,-1.9139,0,0,-1.8982,-1.8993,-1.9055,-1.9069,-1.909,-1.9083,-1.9098,-1.9111,-1.9112,-1.9178,-1.9142,-1.9181,-1.9248,-1.9264,-1.9281,-1.9404,-1.9376,-1.9416,-1.9488,-1.9535,-1.955,-1.9563,-1.9608,-1.9625,-1.9426,-1.9426,-1.9426,0,-1.9045,-1.9112,-1.909,-1.9143,-1.9164,-1.9121,-1.9184,-1.9198,-1.9229,-1.9244,-1.9212,-1.9295,-1.9306,-1.9389,-1.9419,-1.9433,-1.945,-1.9416,-1.9549,-1.9562,-1.9574,-1.9617,-1.9634,-1.9431,-1.9431,-1.943,-1.943,0,-1.9189,-1.9236,-1.9283,-1.9315,-1.934,-1.9398,-1.9385,-1.9413,-1.9395,-1.9392,-1.9459,-1.947,-1.9507,-1.9525,-1.9508,-1.9605,-1.9587,-1.9553,-1.9497,-1.9597,-1.9637,-1.9654,-1.9438,-1.9436,-1.9435,-1.9434,0,0,-1.9358,-1.9374,-1.9393,-1.9406,-1.9424,-1.946,-1.9515,-1.9551,-1.9576,-1.9598,-1.9644,-1.9701,-1.9668,-1.9688,-1.9672,-1.9713,-1.9811,-1.9673,-1.9673,-1.9699,-1.992,-1.9948,-1.9967,-1.9791,-1.9794,-1.9797,-1.9919,0,-1.9478,-1.9574,-1.9556,-1.965,-1.9692,-1.9651,-1.9699,-1.9715,-1.9714,-1.9749,-1.9747,-1.9788,-1.9742,-1.9753,-1.9791,-1.9791,-1.9855,-1.9782,-1.9835,-1.9837,-1.9834,-1.9988,-2.0017,-2.0132,-1.9934,-1.9937,-1.9938,0,-1.9633,-1.966,-1.9759,-1.977,-1.9787,-1.9831,-1.9862,-1.9896,-1.9913,-1.9909,-1.993,-1.9906,-1.996,-1.9902,-1.9977,-1.9927,-1.9947,-1.995,-1.9954,-1.996,-1.9896,-2.0,-2.0168,-2.0186,-1.9963,-1.9961,-1.9959,0,-1.9748,-1.9809,-1.9876,-1.9888,-1.9902,-1.9934,-1.9941,-1.9955,-1.9978,-2.0004,-2.0019,-2.0051,-2.007,-2.0095,-2.0081,-2.0039,-2.0159,-2.0099,-2.0157,-2.0158,-2.0187,-2.0186,-2.0363,-2.0196,-2.0196,-2.0196,-2.0195,0,-1.9886,-1.9948,-1.9928,-1.9969,-2.0037,-2.0014,-2.0082,-2.0084,-2.0097,-2.0138,-2.0103,-2.0142,-2.0119,-2.0156,-2.0144,-2.0209,-2.0217,-2.0215,-2.0212,-2.022,-2.022,-2.0235,-2.0227,-2.02,-2.0199,-2.0198,-2.0197,0,-2.0027,-2.0016,-2.0086,-2.0093,-2.0096,-2.0146,-2.0152,-2.019,-2.0185,-2.0237,-2.0248,-2.024,-2.0281,-2.0268,-2.0313,-2.0305,-2.0387,-2.0373,-2.0382,-2.0379,-2.0439,-2.0435,-2.0634,-2.0659,-2.0474,-2.0476,-2.0478,0,-2.0117,-2.0164,-2.0176,-2.0201,-2.021,-2.0251,-2.0273,-2.0252,-2.0277,-2.0299,-2.0335,-2.0373,-2.0403,-2.0471,-2.047,-2.0503,-2.049,-2.0558,-2.0496,-2.0502,-2.0494,-2.0492,-2.0497,-2.0571,-2.0573,-2.0575,-2.0576,0,-2.0279,-2.0271,-2.0305,-2.0337,-2.0365,-2.0389,-2.041,-2.0432,-2.0412,-2.0441,-2.0483,-2.0507,-2.0552,-2.0591,-2.0621,-2.0628,-2.06,-2.0595,-2.0611,-2.0621,-2.0625,-2.0625,-2.0418,-2.0592,-2.059,-2.0589,-2.0588,-2.0588,-2.0399,-2.0438,-2.0453,-2.0492,-2.0505,-2.0525,-2.0562,-2.056,-2.0595,-2.063,-2.0615,-2.0664,-2.0678,-2.0716,-2.0727,-2.0764,-2.0739,-2.0761,-2.0767,-2.0774,-2.0782,-2.0617,-2.0769,-2.0769,-2.0769,-2.0768,-2.0768,0,-2.056,-2.0567,-2.0603,-2.0633,-2.0664,-2.0632,-2.0653,-2.0681,-2.0724,-2.074,-2.077,-2.0818,-2.0855,-2.0855,-2.0889,-2.0919,-2.0907,-2.0929,-2.0928,-2.093,-2.0802,-2.0786,-2.0939,-2.0939,-2.0939,-2.0939,-2.0939,-2.0939,-2.0648,-2.0714,-2.0707,-2.0779,-2.0784,-2.0832,-2.0847,-2.0865,-2.0878,-2.0933,-2.0964,-2.0963,-2.0973,-2.1007,-2.1039,-2.1038,-2.1053,-2.1081,-2.1075,-2.0956,-2.0939,-2.0923,-2.0908,-2.1084,-2.1084,-2.12,-2.1201,-2.1202]},{"header":{"parameterUnit":"m.s-1","parameterCategory":1,"la1":30.2991,"la2":30.254,"lo1":-89.0895,"lo2":-89.0444,"dy":0.0017,"dx":0.0017,"nx":28,"ny":28,"refTime":"2023-10-06T21:00:00:Z","depth":0,"parameterNumber":3,"parameterNumberName":"V-component_of_WINDS"},"data":[0,0,0,0,0,0,0,0,0,0,0,0,0,0,0,0,0,0,0,0,0,0,0,0,0,0,0,0,0,0,0,0,0,0,0,0,0,0,0,0,0,0,0,0,0,0,0,0,0,0,0,0,0,0,0,0,0,0,-7.0003,-7.0004,0,-7.0108,-7.0109,-7.0111,-7.0005,-7.0001,-6.9997,-6.9993,-7.0095,-7.0101,-7.0107,0,0,0,0,0,0,0,0,0,0,0,0,0,-6.9704,-6.9711,-7.0003,-7.0004,-7.0006,-7.0108,-7.0109,-7.0111,-7.0006,-7.0001,-6.9996,-6.9991,-7.0092,-7.01,-7.0108,0,0,0,0,0,0,0,0,0,0,0,0,0,-6.9824,-6.9713,-7.0003,-6.9966,-6.9964,-7.0108,-7.0109,-7.0111,-7.0007,-7.0001,-6.9995,-6.9989,-7.009,-7.0099,-7.0109,-7.0293,0,0,-7.0139,-7.0143,0,0,0,0,0,0,0,0,-6.9818,-6.9835,-6.997,-6.9969,-6.9966,-7.0037,-7.0041,-7.0172,-7.0009,-6.999,-6.9993,-6.9986,-7.008,-7.009,-7.0123,-7.0298,-7.0302,-7.014,-7.0146,-7.015,-7.0153,0,0,0,0,0,0,0,-6.9809,-6.983,-7.0044,-6.9972,-6.997,-6.9942,-6.9952,-7.0065,-7.0068,-6.9991,-6.9984,-6.9998,-7.0078,-7.0114,-7.0125,-7.0303,-7.014,-7.0148,-7.0154,-7.0158,-7.0633,-7.0639,0,0,0,0,0,0,-6.9806,-6.9824,-7.0041,-7.0047,-6.9876,-6.9952,-6.9964,-7.0021,-7.0067,-7.0068,-7.0004,-6.9993,-7.01,-7.0114,-7.0128,-7.0347,-7.015,-7.0159,-7.0165,-7.0626,-7.0634,-7.0642,0,0,0,0,0,0,-6.98,-6.9827,-7.0037,-6.9934,-6.9959,-6.9964,-7.0029,-7.0026,-7.0062,-7.0076,-7.0075,-7.0041,-7.0096,-7.0114,-7.0253,-7.0349,-7.0163,-7.0172,-7.0618,-7.0629,-7.0638,-7.0785,0,0,0,0,0,0,-6.9792,-6.9825,-6.9897,-6.9936,-6.9965,-7.0163,-7.0035,-7.0033,-7.008,-7.0068,-7.0111,-7.0112,-7.0093,-7.0239,-7.0263,-7.0359,-7.018,-7.061,-7.0623,-7.0635,-7.0772,-7.0799,-7.0823,0,0,0,0,0,-6.9782,-6.9933,-6.9901,-6.9928,-7.0055,-7.0168,-7.0184,-7.0161,-7.0089,-7.016,-7.0168,-7.011,-7.0334,-7.0254,-7.028,-7.038,-7.0604,-7.0619,-7.0634,-7.0761,-7.0794,-7.0822,0,0,0,0,0,0,-6.9902,-6.9937,-6.9902,-7.0071,-7.0118,-7.015,-7.0239,-7.0197,-7.0263,-7.0249,-7.0215,-7.0225,-7.0373,-7.039,-7.03,-7.056,-7.0457,-7.0478,-7.0544,-7.0576,-7.0601,-7.0594,-7.0188,0,0,0,0,0,-6.9948,-7.004,-7.0065,-7.0211,-7.0237,-7.0235,-7.0283,-7.0261,-7.0307,-7.0326,-7.0344,-7.039,-7.047,-7.0523,-7.0598,-7.0773,-7.0781,-7.0855,-7.088,-7.0901,-7.092,-7.1013,-7.1047,-7.0692,-7.0691,-7.0691,0,0,-7.0044,-7.0075,-7.0135,-7.0236,-7.027,-7.0364,-7.0252,-7.0355,-7.0424,-7.0341,-7.0474,-7.0489,-7.0537,-7.0695,-7.0765,-7.0714,-7.1019,-7.092,-7.0937,-7.0944,-7.1032,-7.1066,-7.1096,-7.0702,-7.07,-7.0698,0,0,-7.0268,-7.0301,-7.0427,-7.0463,-7.0516,-7.0514,-7.0544,-7.0583,-7.0591,-7.0724,-7.0664,-7.0743,-7.0883,-7.0919,-7.0956,-7.1194,-7.1143,-7.1218,-7.1351,-7.1443,-7.1471,-7.1495,-7.158,-7.1611,-7.1237,-7.1237,-7.1238,0,-7.0381,-7.0522,-7.0496,-7.0605,-7.0651,-7.0582,-7.0708,-7.0743,-7.0817,-7.085,-7.0791,-7.0965,-7.0992,-7.1157,-7.1216,-7.1248,-7.128,-7.1214,-7.1469,-7.1494,-7.1516,-7.1597,-7.1629,-7.1246,-7.1245,-7.1244,-7.1243,0,-7.0658,-7.0757,-7.0851,-7.0927,-7.0983,-7.11,-7.109,-7.1149,-7.1122,-7.1125,-7.1261,-7.1291,-7.1371,-7.1408,-7.1382,-7.157,-7.1537,-7.1475,-7.137,-7.1559,-7.1634,-7.1665,-7.1259,-7.1256,-7.1253,-7.1251,0,0,-7.0961,-7.1021,-7.1057,-7.109,-7.1144,-7.1218,-7.1331,-7.1411,-7.1463,-7.1515,-7.1608,-7.1728,-7.167,-7.1712,-7.1689,-7.177,-7.1956,-7.1697,-7.1698,-7.1745,-7.2165,-7.2213,-7.2249,-7.1922,-7.1928,-7.1933,-7.2161,0,-7.1187,-7.1386,-7.1365,-7.1554,-7.1644,-7.1579,-7.1677,-7.1719,-7.1725,-7.18,-7.1804,-7.189,-7.1808,-7.1833,-7.191,-7.1917,-7.204,-7.19,-7.2007,-7.2011,-7.1999,-7.2288,-7.2339,-7.2553,-7.219,-7.2195,-7.2199,0,-7.1477,-7.1543,-7.1742,-7.1781,-7.1818,-7.1907,-7.1979,-7.2052,-7.2098,-7.2096,-7.2143,-7.2106,-7.2217,-7.211,-7.2262,-7.2167,-7.2209,-7.2219,-7.2227,-7.2237,-7.2118,-7.2306,-7.2621,-7.2654,-7.2245,-7.2241,-7.2238,0,-7.168,-7.1817,-7.1954,-7.1984,-7.2034,-7.2098,-7.2121,-7.2161,-7.221,-7.2271,-7.2303,-7.2376,-7.2416,-7.2472,-7.2454,-7.2378,-7.261,-7.2501,-7.2611,-7.2612,-7.2663,-7.2661,-7.299,-7.2689,-7.2689,-7.2688,-7.2688,0,-7.1935,-7.2059,-7.2046,-7.213,-7.2266,-7.224,-7.2375,-7.2389,-7.2425,-7.2509,-7.2456,-7.2535,-7.2507,-7.2585,-7.2571,-7.2699,-7.2717,-7.2717,-7.2713,-7.2723,-7.2723,-7.2751,-7.2736,-7.2697,-7.2695,-7.2693,-7.2692,0,-7.2184,-7.2181,-7.2326,-7.2361,-7.2372,-7.2472,-7.25,-7.2578,-7.2579,-7.2687,-7.271,-7.2711,-7.2799,-7.2787,-7.2885,-7.2876,-7.3035,-7.3012,-7.3021,-7.3016,-7.3126,-7.3117,-7.3486,-7.3533,-7.3201,-7.3205,-7.3207,0,-7.2348,-7.2442,-7.2488,-7.2542,-7.2571,-7.2657,-7.2708,-7.2685,-7.2739,-7.2798,-7.2869,-7.2953,-7.3019,-7.3163,-7.3171,-7.3245,-7.3223,-7.3347,-7.3234,-7.3242,-7.3226,-7.3221,-7.323,-7.337,-7.3374,-7.3377,-7.338,0,-7.2639,-7.2633,-7.2709,-7.2786,-7.2848,-7.2906,-7.2959,-7.3005,-7.2986,-7.305,-7.3141,-7.3193,-7.3293,-7.3377,-7.3447,-7.3467,-7.3421,-7.3415,-7.3445,-7.3457,-7.3459,-7.346,-7.3083,-7.3407,-7.3404,-7.3402,-7.3401,-7.34,-7.2851,-7.2932,-7.2978,-7.3064,-7.3102,-7.3152,-7.3228,-7.3239,-7.3315,-7.3397,-7.3377,-7.348,-7.3521,-7.3611,-7.3639,-7.3717,-7.3671,-7.3714,-7.3725,-7.3736,-7.375,-7.3446,-7.373,-7.3729,-7.3728,-7.3727,-7.3727,0,-7.314,-7.3166,-7.3246,-7.3323,-7.3391,-7.3342,-7.3398,-7.3457,-7.3549,-7.3593,-7.366,-7.3764,-7.3844,-7.3859,-7.3935,-7.3995,-7.3976,-7.4016,-7.4012,-7.4017,-7.3786,-7.3753,-7.4031,-7.4031,-7.4031,-7.4031,-7.403,-7.403,-7.3298,-7.3433,-7.3432,-7.3584,-7.3608,-7.371,-7.3746,-7.3792,-7.3827,-7.3946,-7.4014,-7.4024,-7.4055,-7.4133,-7.4205,-7.4206,-7.4237,-7.4286,-7.428,-7.4064,-7.4034,-7.4005,-7.3974,-7.4293,-7.4294,-7.4505,-7.4507,-7.4509]}]]